Regional Weather Roundup
Issued by NWS Wakefield, VA

Home | Current Version | Previous Version | Text Only | Print | Product List | Glossary Off
Versions: 1 2 3 4 5 6 7 8 9 10 11 12 13 14 15 16 17 18 19 20 21 22 23 24 25 26 27 28 29 30 31 32 33 34 35 36 37 38 39 40 41 42 43 44 45 46 47 48 49 50

000
ASUS41 KAKQ 200210
RWRAKQ

REGIONAL WEATHER ROUNDUP
NATIONAL WEATHER SERVICE WAKEFIELD VA
1000 PM EDT SUN OCT 19 2014

Note: "fair" indicates few or no clouds below 12,000 feet with no
significant weather and/or obstructions to visibility. * = Denotes
station may not report precipitation (e.g., rain,snow,etc.),
thunder or fog.

VAZ042-051-052>054-056-200300-
NORTHERN VIRGINIA

CITY           SKY/WX    TMP DP  RH WIND       PRES   REMARKS
WASH NATIONAL  MOCLDY    56  32  40 CALM      30.12R
DULLES         MOCLDY    43  35  73 W3        30.11R
FORT BELVOIR   PTCLDY    43  40  89 CALM      30.13R
QUANTICO       PTCLDY    46  40  79 NW9       30.14R
FREDERICKSBRG* PTCLDY    45  39  82 CALM      30.12R
STAFFORD*      PTCLDY    39  39 100 CALM      30.17R
WARRENTON      PTCLDY    41  40  97 CALM      30.12R
CULPEPER*      MOCLDY    43  37  81 CALM      30.13R
MANASSAS*      MOCLDY    43  41  93 CALM      30.12R
LEESBURG*      MOCLDY    45  39  81 W5        30.11R
WINCHESTER     MOCLDY    46  32  57 CALM      30.10S
FRONT ROYAL*   PTCLDY    45  34  65 S3        30.10R
LURAY*         PTCLDY    45  37  76 CALM      30.11R
$$

VAZ048-049-060>072-079>083-200300-
CENTRAL AND SOUTH CENTRAL VIRGINIA...AND NORTH CENTRAL NORTH CAROLINA

CITY           SKY/WX    TMP DP  RH WIND       PRES   REMARKS
RICHMOND       PTCLDY    47  38  71 CALM      30.12R
CHESTERFIELD*  PTCLDY   N/A N/A N/A CALM      30.13S
PETERSBURG*    PTCLDY    40  39  97 CALM      30.13R
HANOVER        CLEAR     42  38  85 CALM      30.14R
TAPPAHANNOCK*  CLEAR     41  37  86 CALM      30.13S
CHARLOTTSVILLE PTCLDY    47  36  65 CALM      30.11R
ORANGE*        PTCLDY    43  39  87 CALM      30.13R
LOUISA*        CLEAR     39  37  93 CALM      30.11R
FARMVILLE*     PTCLDY    43  43 100 CALM      30.09S
CREWE*         CLEAR     44  42  93 CALM      30.11S
FORT PICKETT*  CLEAR     44  42  91 CALM      30.12R
LUNENBURG*     CLEAR     44  43  95 CALM      30.11S
SOUTH HILL*    CLEAR     45  45 100 CALM      30.18R
LAWRENCEVILLE* CLEAR     45  44  96 CALM      30.12S
ROANOKE RAPIDS CLEAR     45  43  93 CALM      30.13S
RALEIGH        CLEAR     50  44  80 CALM      30.13R
$$

VAZ088>098-200300-
SOUTHEAST VIRGINIA

CITY           SKY/WX    TMP DP  RH WIND       PRES   REMARKS
NORFOLK        CLEAR     51  38  60 CALM      30.12R
VIRGINIA BEACH PTCLDY    48  36  63 CALM      30.11S
NORFOLK NAVAL  PTCLDY    57  36  45 N8        30.14R
WEST POINT*    PTCLDY    43  40  87 CALM      30.15R
NEWPORT NEWS   PTCLDY    44  39  82 CALM      30.13R
LANGLEY AFB    PTCLDY    45  42  89 NW5       30.13R
FORT EUSTIS    PTCLDY    47  42  84 CALM      30.11R
WILLIAMSBURG*  PTCLDY    48  45  87 CALM      30.13S
HR EXEC AP*    CLEAR     37  34  87 CALM      30.15R
FRANKLIN*      PTCLDY    43  41  93 CALM      30.13R
WAKEFIELD      PTCLDY    43  40  89 CALM      30.12S
$$

VAZ020-022-025-037-045-200300-
WEST CENTRAL AND SOUTHWEST VIRGINIA

CITY           SKY/WX    TMP DP  RH WIND       PRES   REMARKS
STAUNTON*      PTCLDY    40  34  80 SE5       30.13S
HOT SPRINGS VA MOCLDY    37  31  77 W8        30.09S
LYNCHBURG      MOCLDY    40  39  97 CALM      30.13R
DANVILLE       CLEAR     45  42  89 CALM      30.13R
SOUTH BOSTON*  NOT AVBL
MARTINSVILLE   CLEAR     42  42 100 CALM      30.15S
ROANOKE        PTCLDY    50  36  58 CALM      30.14S
BLACKSBURG     CLEAR     43  39  87 CALM      30.16S
DUBLIN*        CLEAR     42  38  84 CALM      30.16S
MARION*        CLEAR     40  37  88 CALM      30.17S
HILLSVILLE*    CLEAR     46  35  65 N3        30.15R
RICHLANDS*     PTCLDY    48  38  70 NE5       30.14F
WISE*          PTCLDY    46  36  66 CALM      30.14F
ABINGDON*      PTCLDY    44  40  86 E3        30.14S
$$

MDZ021>025-VAZ099-100-200300-
SOUTHERN MARYLAND AND THE DELMARVA PENINSULA

CITY           SKY/WX    TMP DP  RH WIND       PRES   REMARKS
PATUXENT RIVER PTCLDY    43  36  76 SW6       30.11R
BAY BRIDGE APT   N/A     54  34  47 NW7       30.10R
LEONARDTOWN    PTCLDY    41  36  81 CALM      30.13R
DOVER          PTCLDY    46  34  64 W2        30.06S
GEORGETOWN     PTCLDY    44  37  76 CALM      30.09S
EASTON         NOT AVBL
CAMBRIDGE      CLEAR     43  36  75 CALM        N/A
SALISBURY      CLEAR     41  37  86 SW6       30.11R
OCEAN CITY     CLEAR     41  37  86 SW3       30.10R
WALLOPS ISLAND CLEAR     44  36  73 NW5       30.12R
ACCOMACK*      CLEAR     43  37  81 CALM      30.12R
$$

NCZ012>017-030>032-200300-
EASTERN NORTH CAROLINA

CITY           SKY/WX    TMP DP  RH WIND       PRES   REMARKS
ELIZABETH CITY CLEAR     46  39  76 CALM      30.13R
AHOSKIE*       CLEAR     43  41  95 CALM      30.14R
EDENTON*       CLEAR     46  43  89 CALM      30.13R
CURRITUCK*     CLEAR     47  40  76 CALM      30.13S
KILL DEVIL HLS CLEAR     56  34  44 NW3       30.11R
MANTEO         CLEAR     58  33  39 NW7       30.13R
CAPE HATTERAS  CLEAR     59  37  44 N7        30.12R
TARBORO*       CLEAR     45  44  95 CALM      30.14S
GOLDSBORO      CLEAR     49  48  97 CALM      30.12R
WASHINGTON     CLEAR     47  44  91 CALM      30.14R
GREENVILLE     CLEAR     46  46 100 CALM      30.14R
NEW BERN       CLEAR     49  45  86 CALM      30.14R
WILMINGTON     CLEAR     50  48  93 NE3       30.13R
$$

VAZ048-200300-
ELSEWHERE

CITY           SKY/WX    TMP DP  RH WIND       PRES   REMARKS
HARRISBURG PA  MOCLDY    48  32  53 NW6       30.07S
BALTIMORE      MOCLDY    45  35  68 CALM      30.09R
ANNAPOLIS      PTCLDY    48  35  60 W3        30.10R
ANDREWS AFB    PTCLDY    47  34  61 NW1       30.10R
WILMINGTON DE  PTCLDY    45  33  63 SW3       30.09R
PHILADELPHIA   CLEAR     51  28  41 NW3       30.08S
WILDWOOD NJ*   PTCLDY    52  28  40 N7        30.08S
ATLANTIC CITY  PTCLDY    41  32  70 CALM      30.07S
HENDERSON NC   CLEAR     46  44  93 CALM      30.12S
GREENSBORO     CLEAR     49  42  77 CALM      30.12R
ROCKY MOUNT    CLEAR     45  43  93 CALM      30.13R
FAYETTEVILLE   CLEAR     51  46  83 CALM      30.13R
CHARLOTTE      PTCLDY    54  41  61 SE3       30.12R
$$

VAZ100-200300-
MARINE

STATION/POSITION TIME  TEMP    WIND        PRES    WAVE   SWELL
                       AIR SEA DIR/SP/G            HT/PER HT/PER
                 (UTC) (F)     (DEG/KT/KT) (MB)    (FT/S) (FT/S)
44066 TX TWR #4  0200   53 66  320/ 21/ 27 1015.8R   8/ 6   2/11
CAPE MAY NJ      0200   55 66  350/  9/ 14 1017.9S
LEWES DE         0200   56 62  350/ 18/ 21 1018.2F
15NM E FENWICK I 0200   58 66  320/ 21/ 25 1017.8R   5/ 5   2/11
OCEAN-CITY-INLET 0200          290/  2/  4 1018.6R
WACHAPREAGUE VA  0200   49 63  290/  1/  3 1019.9R
THOMAS POINT MD  0200   54 64  290/  9/ 10 1020.3R
GOOSES REEF MD   0200   57     300/  8/ 10 1019.8S
COVE POINT MD    0200   54     300/  5/  6 1019.4R
SOLOMONS ISLAND  0200      66                N/A
BISHOPS HEAD MD  0200   53 57  310/  4/  4 1019.0R
PINEY POINT MD   0200           20/  5/  6   N/A
POTOMAC MD       0200   57     340/  8/  8 1019.1R
CAMBRIDGE MD     0200   56 64  290/  5/  6 1018.9R
LEWISETTA VA     0200   53 63  270/  6/  7 1019.6R
RAPPAHANNOCK LGT 0200          320/ 14/ 17 1020.2R
STINGRAY PT      0200   59     320/ 10/ 12 1020.4R
YORK RVR RNG VA  0200   59     360/  9/ 11 1019.5R
YORKTOWN VA      0200   57 67  330/  4/  6 1019.8R
JAMESTOWN VA     0200   53      70/  2/  2   N/A
DOMINION TERM VA 0200   56      20/  5/  7 1019.9R
KIPTOPEKE VA     0200      69  360/  7/ 12   N/A
CHES BAY BRIDGE  0200   60 67  320/  9/ 12 1019.3R
CHESAPEAKE LGHT  0100   60     340/ 17/ 18 1020.2R
WILLOUBY STN VA  0200   58     350/  9/ 10 1018.6R
S CRANEY ISL VA  0200          330/  9/ 13 1019.5S
CAPE HENRY BUOY  0200      70                N/A     3/ 5   2/13
1ST LANDING BUOY 0200   61     340/ 12/ 14 1019.3S
CAPE CHARLES BUO 0200      69                N/A     3/14   2/14
64NM E OF VA BCH 0200   60 69  350/ 17/ 21 1018.7R   6/ 6   2/14
DUCK PIER NC     0200   60 69  330/ 10/ 14 1018.9R
44100 DUCK FRF   0200      71                N/A     5/ 6   2/14
44056 DUCK FRF   0200                        N/A     4/ 6   2/14
OREGON INLET NC  0200   57 70  320/  7/ 11 1019.8R
HATTERAS NC      0200   62 68  350/ 13/ 16 1020.3R
DIAMOND SHLS NC  0200   62     340/ 14/ 19 1019.7R   4/11   3/11
CAPE LOOKOUT NC  0100   61     360/ 10/ 11 1019.5R
$$



USA.gov is the U.S. government's official web portal to all federal, state and local government web resources and services.